Torna al catalogo

CZ-4 DEB

AttivoSSO
NORAD 20902·DEBRIS·🇨🇳 China

Lanciato Sep 3, 1990 da Taiyuan Satellite Launch Center

Loading…

Prossimi Passaggi (prossime 24 ore)

TLE

AggiornatoSource: Space-Track

Epoca: Sep 13, 2026, 22:42 UTC

1 20902U 90081BN  26256.94612917  .00000227  00000-0  17585-3 0  9991
2 20902  99.3724  53.7154 0078449 294.9140 230.1604 14.01854446827331

Traccia CZ-4 DEB in tempo reale con AllMySat

Download on the App Store